Time,TemperatureF,DewpointF,PressureIn,WindDirection,WindDirectionDegrees,WindSpeedMPH,WindSpeedGustMPH,Humidity,HourlyPrecipIn,Conditions,Clouds,dailyrainin,SoftwareType,DateUTC
2013-05-13 00:00:00,37.0,29.8,30.07,North,0,1.0,1.0,75,0.00,,,0.00,Wunderground v.1.15,2013-05-13 04:00:00,
2013-05-13 00:05:00,37.0,29.8,30.07,North,0,0.0,1.0,75,0.00,,,0.00,Wunderground v.1.15,2013-05-13 04:05:00,
2013-05-13 00:10:00,37.0,29.8,30.07,North,0,0.0,1.0,75,0.00,,,0.00,Wunderground v.1.15,2013-05-13 04:10:00,
2013-05-13 00:15:00,37.2,30.0,30.08,North,0,1.0,2.0,75,0.00,,,0.00,Wunderground v.1.15,2013-05-13 04:15:00,
2013-05-13 00:20:00,37.0,29.8,30.08,NNW,342,1.0,1.0,75,0.00,,,0.00,Wunderground v.1.15,2013-05-13 04:20:00,
2013-05-13 00:25:00,37.0,29.5,30.08,North,0,1.0,2.0,74,0.00,,,0.00,Wunderground v.1.15,2013-05-13 04:25:00,
2013-05-13 00:30:00,37.0,29.5,30.08,North,0,1.0,1.0,74,0.00,,,0.00,Wunderground v.1.15,2013-05-13 04:30:00,
2013-05-13 00:35:00,36.9,29.4,30.08,North,0,0.0,1.0,74,0.00,,,0.00,Wunderground v.1.15,2013-05-13 04:35:00,
2013-05-13 00:45:00,36.8,29.3,30.08,North,0,0.0,0.0,74,0.00,,,0.00,Wunderground v.1.15,2013-05-13 04:45:00,
2013-05-13 00:50:00,36.8,29.6,30.08,North,0,0.0,0.0,75,0.00,,,0.00,Wunderground v.1.15,2013-05-13 04:50:00,
2013-05-13 01:00:00,36.6,29.4,30.08,North,0,0.0,0.0,75,0.00,,,0.00,Wunderground v.1.15,2013-05-13 05:00:00,
2013-05-13 01:05:00,36.5,29.3,30.08,North,0,0.0,0.0,75,0.00,,,0.00,Wunderground v.1.15,2013-05-13 05:05:00,
2013-05-13 01:15:00,36.2,29.0,30.08,North,0,0.0,0.0,75,0.00,,,0.00,Wunderground v.1.15,2013-05-13 05:15:00,
2013-05-13 01:20:00,36.0,29.2,30.08,North,0,0.0,0.0,76,0.00,,,0.00,Wunderground v.1.15,2013-05-13 05:20:00,
2013-05-13 01:25:00,35.9,29.1,30.08,North,0,0.0,0.0,76,0.00,,,0.00,Wunderground v.1.15,2013-05-13 05:25:00,
2013-05-13 01:30:00,35.8,29.0,30.08,North,0,0.0,0.0,76,0.00,,,0.00,Wunderground v.1.15,2013-05-13 05:30:00,
2013-05-13 01:40:00,35.5,29.0,30.08,NNW,343,0.0,0.0,77,0.00,,,0.00,Wunderground v.1.15,2013-05-13 05:40:00,
2013-05-13 01:45:00,35.3,28.8,30.08,NNW,343,0.0,0.0,77,0.00,,,0.00,Wunderground v.1.15,2013-05-13 05:45:00,
2013-05-13 01:50:00,35.0,28.8,30.08,NNW,343,0.0,0.0,78,0.00,,,0.00,Wunderground v.1.15,2013-05-13 05:50:00,
2013-05-13 01:55:00,34.9,28.7,30.08,NNW,343,0.0,0.0,78,0.00,,,0.00,Wunderground v.1.15,2013-05-13 05:55:00,
2013-05-13 02:05:00,34.6,28.8,30.08,NNW,343,0.0,0.0,79,0.00,,,0.00,Wunderground v.1.15,2013-05-13 06:05:00,
2013-05-13 02:15:00,34.3,28.8,30.08,NNW,343,0.0,0.0,80,0.00,,,0.00,Wunderground v.1.15,2013-05-13 06:15:00,
2013-05-13 02:20:00,34.1,28.6,30.08,NNW,343,0.0,0.0,80,0.00,,,0.00,Wunderground v.1.15,2013-05-13 06:20:00,
2013-05-13 02:25:00,33.8,28.6,30.08,NNW,343,0.0,0.0,81,0.00,,,0.00,Wunderground v.1.15,2013-05-13 06:25:00,
2013-05-13 02:30:00,33.7,28.5,30.08,NNW,343,0.0,0.0,81,0.00,,,0.00,Wunderground v.1.15,2013-05-13 06:30:00,
2013-05-13 02:40:00,33.2,28.3,30.08,NNW,343,0.0,0.0,82,0.00,,,0.00,Wunderground v.1.15,2013-05-13 06:40:00,
2013-05-13 02:45:00,33.1,28.2,30.08,NNW,343,0.0,0.0,82,0.00,,,0.00,Wunderground v.1.15,2013-05-13 06:45:00,
2013-05-13 02:50:00,32.8,27.9,30.08,NNW,343,0.0,0.0,82,0.00,,,0.00,Wunderground v.1.15,2013-05-13 06:50:00,
2013-05-13 02:55:00,32.7,28.1,30.08,NNW,343,0.0,0.0,83,0.00,,,0.00,Wunderground v.1.15,2013-05-13 06:55:00,
2013-05-13 03:05:00,32.2,27.6,30.08,NNW,343,0.0,0.0,83,0.00,,,0.00,Wunderground v.1.15,2013-05-13 07:05:00,
2013-05-13 03:15:00,31.8,27.5,30.08,NNW,343,0.0,0.0,84,0.00,,,0.00,Wunderground v.1.15,2013-05-13 07:15:00,
2013-05-13 03:20:00,31.6,27.3,30.08,NNW,343,0.0,0.0,84,0.00,,,0.00,Wunderground v.1.15,2013-05-13 07:20:00,
2013-05-13 03:25:00,31.5,27.2,30.08,NNW,343,0.0,0.0,84,0.00,,,0.00,Wunderground v.1.15,2013-05-13 07:25:00,
2013-05-13 03:35:00,31.0,26.7,30.08,NNW,343,0.0,0.0,84,0.00,,,0.00,Wunderground v.1.15,2013-05-13 07:35:00,
2013-05-13 03:40:00,30.7,26.4,30.08,NNW,343,0.0,0.0,84,0.00,,,0.00,Wunderground v.1.15,2013-05-13 07:40:00,
2013-05-13 03:45:00,30.7,26.7,30.08,NNW,343,0.0,0.0,85,0.00,,,0.00,Wunderground v.1.15,2013-05-13 07:45:00,
2013-05-13 03:50:00,30.7,26.7,30.08,NNW,343,0.0,0.0,85,0.00,,,0.00,Wunderground v.1.15,2013-05-13 07:50:00,
2013-05-13 04:00:00,30.7,27.0,30.08,NNW,343,0.0,0.0,86,0.00,,,0.00,Wunderground v.1.15,2013-05-13 08:00:00,
2013-05-13 04:05:00,30.9,27.2,30.08,NNW,343,0.0,0.0,86,0.00,,,0.00,Wunderground v.1.15,2013-05-13 08:05:00,
2013-05-13 04:15:00,30.6,26.9,30.08,NNW,343,0.0,0.0,86,0.00,,,0.00,Wunderground v.1.15,2013-05-13 08:15:00,
2013-05-13 04:20:00,30.4,27.0,30.08,NNW,343,0.0,0.0,87,0.00,,,0.00,Wunderground v.1.15,2013-05-13 08:20:00,
2013-05-13 04:25:00,30.6,27.2,30.08,NNW,343,0.0,0.0,87,0.00,,,0.00,Wunderground v.1.15,2013-05-13 08:25:00,
2013-05-13 04:35:00,30.3,26.9,30.08,NNW,343,0.0,0.0,87,0.00,,,0.00,Wunderground v.1.15,2013-05-13 08:35:00,
2013-05-13 04:40:00,30.3,26.9,30.08,NNW,343,0.0,0.0,87,0.00,,,0.00,Wunderground v.1.15,2013-05-13 08:40:00,
2013-05-13 04:45:00,30.0,26.6,30.08,NNW,343,0.0,0.0,87,0.00,,,0.00,Wunderground v.1.15,2013-05-13 08:45:00,
2013-05-13 04:50:00,29.8,26.4,30.08,NNW,343,0.0,0.0,87,0.00,,,0.00,Wunderground v.1.15,2013-05-13 08:50:00,
2013-05-13 05:00:00,29.4,26.0,30.08,NNW,343,0.0,0.0,87,0.00,,,0.00,Wunderground v.1.15,2013-05-13 09:00:00,
2013-05-13 05:05:00,29.4,26.3,30.08,NNW,343,0.0,0.0,88,0.00,,,0.00,Wunderground v.1.15,2013-05-13 09:05:00,
2013-05-13 05:15:00,29.1,26.0,30.08,NNW,343,0.0,0.0,88,0.00,,,0.00,Wunderground v.1.15,2013-05-13 09:15:00,
2013-05-13 05:20:00,29.0,25.9,30.08,NNW,343,0.0,0.0,88,0.00,,,0.00,Wunderground v.1.15,2013-05-13 09:20:00,
2013-05-13 05:25:00,29.0,25.9,30.08,NNW,343,0.0,0.0,88,0.00,,,0.00,Wunderground v.1.15,2013-05-13 09:25:00,
2013-05-13 05:35:00,28.8,25.7,30.08,NNW,343,0.0,0.0,88,0.00,,,0.00,Wunderground v.1.15,2013-05-13 09:35:00,
2013-05-13 05:40:00,28.7,25.6,30.08,NNW,343,0.0,0.0,88,0.00,,,0.00,Wunderground v.1.15,2013-05-13 09:40:00,
2013-05-13 05:45:00,28.7,25.6,30.08,NNW,343,0.0,0.0,88,0.00,,,0.00,Wunderground v.1.15,2013-05-13 09:45:00,
2013-05-13 05:55:00,28.5,25.4,30.08,NNW,343,0.0,0.0,88,0.00,,,0.00,Wunderground v.1.15,2013-05-13 09:55:00,
2013-05-13 06:00:00,29.3,26.7,30.07,NNW,343,0.0,0.0,90,0.00,,,0.00,Wunderground v.1.15,2013-05-13 10:00:00,
2013-05-13 06:05:00,29.5,26.7,30.07,NNW,343,0.0,0.0,89,0.00,,,0.00,Wunderground v.1.15,2013-05-13 10:05:00,
2013-05-13 06:15:00,29.3,26.5,30.07,NNW,343,0.0,0.0,89,0.00,,,0.00,Wunderground v.1.15,2013-05-13 10:15:00,
2013-05-13 06:20:00,29.0,25.9,30.07,NNW,343,0.0,0.0,88,0.00,,,0.00,Wunderground v.1.15,2013-05-13 10:20:00,
2013-05-13 06:25:00,28.7,25.6,30.07,NNW,343,0.0,0.0,88,0.00,,,0.00,Wunderground v.1.15,2013-05-13 10:25:00,
2013-05-13 06:35:00,28.2,25.4,30.08,NNW,343,0.0,0.0,89,0.00,,,0.00,Wunderground v.1.15,2013-05-13 10:35:00,
2013-05-13 06:40:00,28.1,25.3,30.08,NNW,343,0.0,0.0,89,0.00,,,0.00,Wunderground v.1.15,2013-05-13 10:40:00,
2013-05-13 06:45:00,27.9,25.1,30.08,NNW,343,0.0,0.0,89,0.00,,,0.00,Wunderground v.1.15,2013-05-13 10:45:00,
2013-05-13 06:55:00,28.1,25.3,30.08,NNW,343,0.0,0.0,89,0.00,,,0.00,Wunderground v.1.15,2013-05-13 10:55:00,
2013-05-13 07:00:00,28.1,25.3,30.09,NNW,343,0.0,0.0,89,0.00,,,0.00,Wunderground v.1.15,2013-05-13 11:00:00,
2013-05-13 07:05:00,28.1,25.5,30.09,NNW,343,0.0,0.0,90,0.00,,,0.00,Wunderground v.1.15,2013-05-13 11:05:00,
2013-05-13 07:15:00,28.5,25.9,30.09,NNW,343,0.0,0.0,90,0.00,,,0.00,Wunderground v.1.15,2013-05-13 11:15:00,
2013-05-13 07:20:00,28.8,26.2,30.09,NNW,343,0.0,0.0,90,0.00,,,0.00,Wunderground v.1.15,2013-05-13 11:20:00,
2013-05-13 07:25:00,29.1,26.5,30.09,NNW,343,0.0,0.0,90,0.00,,,0.00,Wunderground v.1.15,2013-05-13 11:25:00,
2013-05-13 07:35:00,30.1,27.8,30.10,NNW,343,0.0,0.0,91,0.00,,,0.00,Wunderground v.1.15,2013-05-13 11:35:00,
2013-05-13 07:40:00,30.6,28.3,30.10,NNW,343,0.0,0.0,91,0.00,,,0.00,Wunderground v.1.15,2013-05-13 11:40:00,
2013-05-13 07:45:00,31.3,29.0,30.10,NNW,343,0.0,0.0,91,0.00,,,0.00,Wunderground v.1.15,2013-05-13 11:45:00,
2013-05-13 07:55:00,32.7,30.4,30.10,NNW,343,0.0,0.0,91,0.00,,,0.00,Wunderground v.1.15,2013-05-13 11:55:00,
2013-05-13 08:00:00,33.5,31.4,30.11,NNW,343,0.0,0.0,92,0.00,,,0.00,Wunderground v.1.15,2013-05-13 12:00:00,
2013-05-13 08:05:00,34.4,32.3,30.11,NNW,343,0.0,0.0,92,0.00,,,0.00,Wunderground v.1.15,2013-05-13 12:05:00,
2013-05-13 08:15:00,35.9,33.5,30.11,NNW,343,0.0,0.0,91,0.00,,,0.00,Wunderground v.1.15,2013-05-13 12:15:00,
2013-05-13 08:20:00,36.6,34.2,30.11,NNW,340,0.0,0.0,91,0.00,,,0.00,Wunderground v.1.15,2013-05-13 12:20:00,
2013-05-13 08:25:00,37.2,34.5,30.11,NNW,335,1.0,2.0,90,0.00,,,0.00,Wunderground v.1.15,2013-05-13 12:25:00,
2013-05-13 08:35:00,38.5,34.1,30.12,NNW,330,1.0,2.0,84,0.00,,,0.00,Wunderground v.1.15,2013-05-13 12:35:00,
2013-05-13 08:40:00,39.3,33.0,30.12,NW,326,1.0,1.0,78,0.00,,,0.00,Wunderground v.1.15,2013-05-13 12:40:00,
2013-05-13 08:45:00,39.9,30.5,30.12,WNW,291,1.0,2.0,69,0.00,,,0.00,Wunderground v.1.15,2013-05-13 12:45:00,
2013-05-13 08:55:00,40.8,27.6,30.12,North,359,3.0,5.0,59,0.00,,,0.00,Wunderground v.1.15,2013-05-13 12:55:00,
2013-05-13 09:00:00,41.2,26.2,30.13,WNW,292,3.0,3.0,55,0.00,,,0.00,Wunderground v.1.15,2013-05-13 13:00:00,
2013-05-13 09:05:00,41.8,25.4,30.13,WSW,254,2.0,3.0,52,0.00,,,0.00,Wunderground v.1.15,2013-05-13 13:05:00,
2013-05-13 09:15:00,42.8,23.9,30.13,WNW,298,2.0,3.0,47,0.00,,,0.00,Wunderground v.1.15,2013-05-13 13:15:00,
2013-05-13 09:20:00,42.9,23.0,30.13,NW,311,3.0,3.0,45,0.00,,,0.00,Wunderground v.1.15,2013-05-13 13:20:00,
2013-05-13 09:30:00,42.6,20.5,30.13,NW,315,4.0,4.0,41,0.00,,,0.00,Wunderground v.1.15,2013-05-13 13:30:00,
2013-05-13 09:35:00,43.1,22.6,30.13,NE,51,3.0,5.0,44,0.00,,,0.00,Wunderground v.1.15,2013-05-13 13:35:00,
2013-05-13 09:40:00,43.3,22.3,30.13,West,265,3.0,5.0,43,0.00,,,0.00,Wunderground v.1.15,2013-05-13 13:40:00,
2013-05-13 09:45:00,43.5,23.5,30.13,NNW,332,3.0,5.0,45,0.00,,,0.00,Wunderground v.1.15,2013-05-13 13:45:00,
2013-05-13 09:55:00,43.9,21.7,30.13,NNW,342,3.0,4.0,41,0.00,,,0.00,Wunderground v.1.15,2013-05-13 13:55:00,
2013-05-13 10:00:00,43.9,22.8,30.13,NNW,330,3.0,6.0,43,0.00,,,0.00,Wunderground v.1.15,2013-05-13 14:00:00,
2013-05-13 10:05:00,44.1,20.7,30.13,West,265,3.0,8.0,39,0.00,,,0.00,Wunderground v.1.15,2013-05-13 14:05:00,
2013-05-13 10:15:00,44.2,22.5,30.13,West,280,3.0,7.0,42,0.00,,,0.00,Wunderground v.1.15,2013-05-13 14:15:00,
2013-05-13 10:25:00,44.9,22.0,30.13,NW,308,3.0,5.0,40,0.00,,,0.00,Wunderground v.1.15,2013-05-13 14:25:00,
2013-05-13 10:30:00,45.1,19.0,30.13,North,359,4.0,7.0,35,0.00,,,0.00,Wunderground v.1.15,2013-05-13 14:30:00,
2013-05-13 10:35:00,44.9,20.2,30.13,NNW,340,3.0,7.0,37,0.00,,,0.00,Wunderground v.1.15,2013-05-13 14:35:00,
2013-05-13 10:40:00,45.5,20.7,30.13,West,272,2.0,3.0,37,0.00,,,0.00,Wunderground v.1.15,2013-05-13 14:40:00,
2013-05-13 10:50:00,45.4,19.3,30.13,West,280,3.0,3.0,35,0.00,,,0.00,Wunderground v.1.15,2013-05-13 14:50:00,
2013-05-13 10:55:00,45.7,19.6,30.13,North,354,4.0,5.0,35,0.00,,,0.00,Wunderground v.1.15,2013-05-13 14:55:00,
2013-05-13 11:00:00,45.8,21.0,30.13,ENE,69,4.0,4.0,37,0.00,,,0.00,Wunderground v.1.15,2013-05-13 15:00:00,
2013-05-13 11:05:00,46.1,19.2,30.13,North,349,3.0,5.0,34,0.00,,,0.00,Wunderground v.1.15,2013-05-13 15:05:00,
2013-05-13 11:15:00,46.4,20.2,30.13,North,353,4.0,7.0,35,0.00,,,0.00,Wunderground v.1.15,2013-05-13 15:15:00,
2013-05-13 11:25:00,46.2,19.3,30.13,WSW,258,3.0,4.0,34,0.00,,,0.00,Wunderground v.1.15,2013-05-13 15:25:00,
2013-05-13 11:30:00,47.0,20.0,30.13,North,354,3.0,6.0,34,0.00,,,0.00,Wunderground v.1.15,2013-05-13 15:30:00,
2013-05-13 11:35:00,47.0,20.7,30.13,North,357,4.0,6.0,35,0.00,,,0.00,Wunderground v.1.15,2013-05-13 15:35:00,
2013-05-13 11:40:00,47.4,21.7,30.13,North,0,4.0,8.0,36,0.00,,,0.00,Wunderground v.1.15,2013-05-13 15:40:00,
2013-05-13 11:50:00,47.3,18.9,30.13,East,96,3.0,4.0,32,0.00,,,0.00,Wunderground v.1.15,2013-05-13 15:50:00,
2013-05-13 11:55:00,47.7,20.7,30.13,NNW,347,2.0,4.0,34,0.00,,,0.00,Wunderground v.1.15,2013-05-13 15:55:00,
2013-05-13 12:00:00,48.6,20.8,30.13,NNW,344,2.0,2.0,33,0.00,,,0.00,Wunderground v.1.15,2013-05-13 16:00:00,
2013-05-13 12:05:00,48.2,19.7,30.13,WNW,302,3.0,3.0,32,0.00,,,0.00,Wunderground v.1.15,2013-05-13 16:05:00,
2013-05-13 12:15:00,48.6,19.3,30.13,NNE,23,2.0,4.0,31,0.00,,,0.00,Wunderground v.1.15,2013-05-13 16:15:00,
2013-05-13 12:25:00,48.8,23.0,30.13,NNE,16,4.0,4.0,36,0.00,,,0.00,Wunderground v.1.15,2013-05-13 16:25:00,
2013-05-13 12:30:00,49.6,20.9,30.12,NW,311,2.0,2.0,32,0.00,,,0.00,Wunderground v.1.15,2013-05-13 16:30:00,
2013-05-13 12:35:00,49.9,21.2,30.12,East,82,1.0,2.0,32,0.00,,,0.00,Wunderground v.1.15,2013-05-13 16:35:00,
2013-05-13 12:45:00,50.4,20.9,30.12,West,271,2.0,7.0,31,0.00,,,0.00,Wunderground v.1.15,2013-05-13 16:45:00,
2013-05-13 12:50:00,50.1,19.8,30.12,NNW,337,4.0,7.0,30,0.00,,,0.00,Wunderground v.1.15,2013-05-13 16:50:00,
2013-05-13 12:55:00,49.8,21.8,30.12,WNW,284,3.0,7.0,33,0.00,,,0.00,Wunderground v.1.15,2013-05-13 16:55:00,
2013-05-13 13:00:00,49.8,22.5,30.12,WSW,251,3.0,3.0,34,0.00,,,0.00,Wunderground v.1.15,2013-05-13 17:00:00,
2013-05-13 13:05:00,50.5,25.8,30.12,WNW,292,4.0,4.0,38,0.00,,,0.00,Wunderground v.1.15,2013-05-13 17:05:00,
2013-05-13 13:15:00,50.8,21.2,30.12,West,281,3.0,6.0,31,0.00,,,0.00,Wunderground v.1.15,2013-05-13 17:15:00,
2013-05-13 13:25:00,50.5,20.9,30.12,North,0,2.0,10.0,31,0.00,,,0.00,Wunderground v.1.15,2013-05-13 17:25:00,
2013-05-13 13:30:00,49.9,21.2,30.12,ENE,73,4.0,5.0,32,0.00,,,0.00,Wunderground v.1.15,2013-05-13 17:30:00,
2013-05-13 13:35:00,50.1,19.0,30.12,NNE,13,3.0,5.0,29,0.00,,,0.00,Wunderground v.1.15,2013-05-13 17:35:00,
2013-05-13 13:45:00,51.0,19.0,30.11,West,274,3.0,10.0,28,0.00,,,0.00,Wunderground v.1.15,2013-05-13 17:45:00,
2013-05-13 13:50:00,51.3,19.3,30.11,NE,49,3.0,3.0,28,0.00,,,0.00,Wunderground v.1.15,2013-05-13 17:50:00,
2013-05-13 13:55:00,51.3,20.9,30.11,West,271,3.0,7.0,30,0.00,,,0.00,Wunderground v.1.15,2013-05-13 17:55:00,
2013-05-13 14:05:00,50.8,18.8,30.11,SW,232,4.0,11.0,28,0.00,,,0.00,Wunderground v.1.15,2013-05-13 18:05:00,
2013-05-13 14:15:00,50.8,18.0,30.11,SW,219,3.0,5.0,27,0.00,,,0.00,Wunderground v.1.15,2013-05-13 18:15:00,
2013-05-13 14:25:00,51.1,23.0,30.11,NW,318,3.0,8.0,33,0.00,,,0.00,Wunderground v.1.15,2013-05-13 18:25:00,
2013-05-13 14:30:00,51.6,21.9,30.11,NW,313,2.0,2.0,31,0.00,,,0.00,Wunderground v.1.15,2013-05-13 18:30:00,
2013-05-13 14:35:00,52.3,21.7,30.11,NNW,337,2.0,2.0,30,0.00,,,0.00,Wunderground v.1.15,2013-05-13 18:35:00,
2013-05-13 14:45:00,52.0,21.5,30.11,NW,319,3.0,3.0,30,0.00,,,0.00,Wunderground v.1.15,2013-05-13 18:45:00,
2013-05-13 14:50:00,52.0,19.9,30.11,West,263,3.0,3.0,28,0.00,,,0.00,Wunderground v.1.15,2013-05-13 18:50:00,
2013-05-13 14:55:00,52.2,20.9,30.11,WSW,237,3.0,3.0,29,0.00,,,0.00,Wunderground v.1.15,2013-05-13 18:55:00,
2013-05-13 15:05:00,52.3,20.1,30.11,WSW,251,4.0,7.0,28,0.00,,,0.00,Wunderground v.1.15,2013-05-13 19:05:00,
2013-05-13 15:15:00,52.2,20.0,30.11,WNW,295,5.0,5.0,28,0.00,,,0.00,Wunderground v.1.15,2013-05-13 19:15:00,
2013-05-13 15:20:00,51.9,19.8,30.11,West,271,5.0,6.0,28,0.00,,,0.00,Wunderground v.1.15,2013-05-13 19:20:00,
2013-05-13 15:25:00,52.3,21.7,30.11,NW,304,4.0,6.0,30,0.00,,,0.00,Wunderground v.1.15,2013-05-13 19:25:00,
2013-05-13 15:30:00,52.3,20.1,30.10,West,278,3.0,5.0,28,0.00,,,0.00,Wunderground v.1.15,2013-05-13 19:30:00,
2013-05-13 15:35:00,52.2,22.4,30.10,West,271,4.0,5.0,31,0.00,,,0.00,Wunderground v.1.15,2013-05-13 19:35:00,
2013-05-13 15:45:00,51.3,19.3,30.10,North,350,5.0,9.0,28,0.00,,,0.00,Wunderground v.1.15,2013-05-13 19:45:00,
2013-05-13 15:50:00,51.4,20.2,30.10,West,275,5.0,5.0,29,0.00,,,0.00,Wunderground v.1.15,2013-05-13 19:50:00,
2013-05-13 15:55:00,51.9,19.8,30.10,NW,320,4.0,5.0,28,0.00,,,0.00,Wunderground v.1.15,2013-05-13 19:55:00,
2013-05-13 16:05:00,51.7,17.9,30.10,NNW,330,3.0,3.0,26,0.00,,,0.00,Wunderground v.1.15,2013-05-13 20:05:00,
2013-05-13 16:15:00,52.5,17.6,30.10,WNW,289,3.0,7.0,25,0.00,,,0.00,Wunderground v.1.15,2013-05-13 20:15:00,
2013-05-13 16:20:00,52.3,16.5,30.10,West,260,4.0,7.0,24,0.00,,,0.00,Wunderground v.1.15,2013-05-13 20:20:00,
2013-05-13 16:25:00,51.7,17.9,30.10,West,261,6.0,7.0,26,0.00,,,0.00,Wunderground v.1.15,2013-05-13 20:25:00,
2013-05-13 16:30:00,51.9,18.0,30.09,NNW,343,5.0,5.0,26,0.00,,,0.00,Wunderground v.1.15,2013-05-13 20:30:00,
2013-05-13 16:35:00,52.3,17.5,30.09,WNW,285,4.0,5.0,25,0.00,,,0.00,Wunderground v.1.15,2013-05-13 20:35:00,
2013-05-13 16:45:00,52.3,20.1,30.08,WNW,301,3.0,6.0,28,0.00,,,0.00,Wunderground v.1.15,2013-05-13 20:45:00,
2013-05-13 16:50:00,52.5,20.3,30.08,North,350,4.0,4.0,28,0.00,,,0.00,Wunderground v.1.15,2013-05-13 20:50:00,
2013-05-13 16:55:00,52.5,20.3,30.08,North,353,4.0,4.0,28,0.00,,,0.00,Wunderground v.1.15,2013-05-13 20:55:00,
2013-05-13 17:05:00,52.3,19.3,30.08,NW,312,4.0,4.0,27,0.00,,,0.00,Wunderground v.1.15,2013-05-13 21:05:00,
2013-05-13 17:15:00,52.3,21.7,30.08,NNE,21,4.0,8.0,30,0.00,,,0.00,Wunderground v.1.15,2013-05-13 21:15:00,
2013-05-13 17:20:00,52.2,20.0,30.08,North,0,4.0,4.0,28,0.00,,,0.00,Wunderground v.1.15,2013-05-13 21:20:00,
2013-05-13 17:25:00,52.2,21.7,30.08,WSW,254,4.0,4.0,30,0.00,,,0.00,Wunderground v.1.15,2013-05-13 21:25:00,
2013-05-13 17:30:00,52.2,22.4,30.07,WNW,285,5.0,5.0,31,0.00,,,0.00,Wunderground v.1.15,2013-05-13 21:30:00,
2013-05-13 17:40:00,52.3,20.9,30.07,West,277,3.0,6.0,29,0.00,,,0.00,Wunderground v.1.15,2013-05-13 21:40:00,
2013-05-13 17:45:00,52.2,19.2,30.07,North,0,4.0,6.0,27,0.00,,,0.00,Wunderground v.1.15,2013-05-13 21:45:00,
2013-05-13 17:50:00,52.2,22.4,30.07,NW,309,3.0,6.0,31,0.00,,,0.00,Wunderground v.1.15,2013-05-13 21:50:00,
2013-05-13 17:55:00,52.6,21.2,30.07,North,1,3.0,6.0,29,0.00,,,0.00,Wunderground v.1.15,2013-05-13 21:55:00,
2013-05-13 18:05:00,53.2,20.9,30.07,WNW,291,3.0,5.0,28,0.00,,,0.00,Wunderground v.1.15,2013-05-13 22:05:00,
2013-05-13 18:15:00,52.8,20.5,30.06,NW,318,4.0,4.0,28,0.00,,,0.00,Wunderground v.1.15,2013-05-13 22:15:00,
2013-05-13 18:20:00,52.3,19.3,30.06,North,0,3.0,6.0,27,0.00,,,0.00,Wunderground v.1.15,2013-05-13 22:20:00,
2013-05-13 18:25:00,52.3,20.1,30.06,NW,312,4.0,6.0,28,0.00,,,0.00,Wunderground v.1.15,2013-05-13 22:25:00,
2013-05-13 18:30:00,52.2,20.9,30.07,North,357,3.0,3.0,29,0.00,,,0.00,Wunderground v.1.15,2013-05-13 22:30:00,
2013-05-13 18:40:00,52.6,20.4,30.07,NW,315,2.0,2.0,28,0.00,,,0.00,Wunderground v.1.15,2013-05-13 22:40:00,
2013-05-13 18:45:00,52.9,19.8,30.06,North,357,2.0,2.0,27,0.00,,,0.00,Wunderground v.1.15,2013-05-13 22:45:00,
2013-05-13 18:50:00,52.8,19.7,30.06,NNE,13,2.0,2.0,27,0.00,,,0.00,Wunderground v.1.15,2013-05-13 22:50:00,
2013-05-13 19:00:00,52.2,19.2,30.06,WNW,301,2.0,2.0,27,0.00,,,0.00,Wunderground v.1.15,2013-05-13 23:00:00,
2013-05-13 19:05:00,51.9,21.4,30.06,WNW,285,1.0,2.0,30,0.00,,,0.00,Wunderground v.1.15,2013-05-13 23:05:00,
2013-05-13 19:15:00,51.3,21.6,30.06,NW,304,1.0,1.0,31,0.00,,,0.00,Wunderground v.1.15,2013-05-13 23:15:00,
2013-05-13 19:20:00,51.1,21.5,30.06,NW,304,0.0,0.0,31,0.00,,,0.00,Wunderground v.1.15,2013-05-13 23:20:00,
2013-05-13 19:25:00,50.8,20.4,30.06,NW,304,0.0,0.0,30,0.00,,,0.00,Wunderground v.1.15,2013-05-13 23:25:00,
2013-05-13 19:35:00,50.5,21.7,30.06,West,267,0.0,2.0,32,0.00,,,0.00,Wunderground v.1.15,2013-05-13 23:35:00,
2013-05-13 19:40:00,50.4,22.3,30.06,West,271,0.0,0.0,33,0.00,,,0.00,Wunderground v.1.15,2013-05-13 23:40:00,
2013-05-13 19:45:00,50.2,22.9,30.06,West,271,0.0,0.0,34,0.00,,,0.00,Wunderground v.1.15,2013-05-13 23:45:00,
2013-05-13 19:50:00,50.2,24.9,30.06,West,271,0.0,0.0,37,0.00,,,0.00,Wunderground v.1.15,2013-05-13 23:50:00,
2013-05-13 20:00:00,49.9,24.6,30.06,West,271,0.0,0.0,37,0.00,,,0.00,Wunderground v.1.15,2013-05-14 00:00:00,
2013-05-13 20:05:00,49.8,27.0,30.06,West,271,0.0,0.0,41,0.00,,,0.00,Wunderground v.1.15,2013-05-14 00:05:00,
2013-05-13 20:15:00,49.4,27.2,30.05,West,271,0.0,0.0,42,0.00,,,0.00,Wunderground v.1.15,2013-05-14 00:15:00,
2013-05-13 20:20:00,49.2,26.5,30.05,West,271,0.0,0.0,41,0.00,,,0.00,Wunderground v.1.15,2013-05-14 00:20:00,
2013-05-13 20:25:00,49.2,27.1,30.05,West,271,0.0,0.0,42,0.00,,,0.00,Wunderground v.1.15,2013-05-14 00:25:00,
2013-05-13 20:35:00,49.1,27.5,30.04,West,271,0.0,0.0,43,0.00,,,0.00,Wunderground v.1.15,2013-05-14 00:35:00,
2013-05-13 20:40:00,48.9,28.5,30.04,West,271,0.0,0.0,45,0.00,,,0.00,Wunderground v.1.15,2013-05-14 00:40:00,
2013-05-13 20:45:00,48.8,29.4,30.04,West,271,0.0,0.0,47,0.00,,,0.00,Wunderground v.1.15,2013-05-14 00:45:00,
2013-05-13 20:55:00,48.6,29.8,30.04,West,271,0.0,0.0,48,0.00,,,0.00,Wunderground v.1.15,2013-05-14 00:55:00,
2013-05-13 21:05:00,48.0,30.2,30.03,West,271,0.0,0.0,50,0.00,,,0.00,Wunderground v.1.15,2013-05-14 01:05:00,
2013-05-13 21:15:00,47.7,29.5,30.03,West,271,0.0,0.0,49,0.00,,,0.00,Wunderground v.1.15,2013-05-14 01:15:00,
2013-05-13 21:20:00,47.6,29.9,30.03,West,271,0.0,0.0,50,0.00,,,0.00,Wunderground v.1.15,2013-05-14 01:20:00,
2013-05-13 21:25:00,47.6,29.9,30.03,West,271,0.0,0.0,50,0.00,,,0.00,Wunderground v.1.15,2013-05-14 01:25:00,
2013-05-13 21:30:00,47.6,29.9,30.03,West,271,0.0,0.0,50,0.00,,,0.00,Wunderground v.1.15,2013-05-14 01:30:00,
2013-05-13 21:35:00,47.3,29.6,30.03,West,271,0.0,0.0,50,0.00,,,0.00,Wunderground v.1.15,2013-05-14 01:35:00,
2013-05-13 21:45:00,47.0,29.3,30.03,West,271,0.0,0.0,50,0.00,,,0.00,Wunderground v.1.15,2013-05-14 01:45:00,
2013-05-13 21:50:00,47.0,30.3,30.03,West,271,0.0,0.0,52,0.00,,,0.00,Wunderground v.1.15,2013-05-14 01:50:00,
2013-05-13 21:55:00,46.8,30.6,30.03,West,271,0.0,0.0,53,0.00,,,0.00,Wunderground v.1.15,2013-05-14 01:55:00,
2013-05-13 22:05:00,46.8,30.1,30.03,West,271,0.0,0.0,52,0.00,,,0.00,Wunderground v.1.15,2013-05-14 02:05:00,
2013-05-13 22:15:00,46.7,29.0,30.02,West,271,0.0,0.0,50,0.00,,,0.00,Wunderground v.1.15,2013-05-14 02:15:00,
2013-05-13 22:20:00,46.7,29.0,30.02,West,271,0.0,0.0,50,0.00,,,0.00,Wunderground v.1.15,2013-05-14 02:20:00,
2013-05-13 22:25:00,46.8,30.1,30.02,West,271,0.0,0.0,52,0.00,,,0.00,Wunderground v.1.15,2013-05-14 02:25:00,
2013-05-13 22:30:00,46.7,30.0,30.02,West,271,0.0,0.0,52,0.00,,,0.00,Wunderground v.1.15,2013-05-14 02:30:00,
2013-05-13 22:40:00,46.5,31.2,30.02,West,271,0.0,0.0,55,0.00,,,0.00,Wunderground v.1.15,2013-05-14 02:40:00,
2013-05-13 22:45:00,46.4,31.1,30.02,West,271,0.0,0.0,55,0.00,,,0.00,Wunderground v.1.15,2013-05-14 02:45:00,
2013-05-13 22:50:00,46.2,30.9,30.02,West,271,0.0,0.0,55,0.00,,,0.00,Wunderground v.1.15,2013-05-14 02:50:00,
2013-05-13 22:55:00,46.1,30.4,30.02,West,271,0.0,0.0,54,0.00,,,0.00,Wunderground v.1.15,2013-05-14 02:55:00,
2013-05-13 23:05:00,46.0,30.7,30.02,West,271,0.0,0.0,55,0.00,,,0.00,Wunderground v.1.15,2013-05-14 03:05:00,
2013-05-13 23:15:00,46.0,29.3,30.01,West,271,0.0,1.0,52,0.00,,,0.00,Wunderground v.1.15,2013-05-14 03:15:00,
2013-05-13 23:20:00,46.1,29.4,30.01,West,271,0.0,0.0,52,0.00,,,0.00,Wunderground v.1.15,2013-05-14 03:20:00,
2013-05-13 23:25:00,46.1,29.4,30.01,West,271,0.0,0.0,52,0.00,,,0.00,Wunderground v.1.15,2013-05-14 03:25:00,
2013-05-13 23:30:00,46.1,29.4,30.00,West,271,0.0,0.0,52,0.00,,,0.00,Wunderground v.1.15,2013-05-14 03:30:00,
2013-05-13 23:40:00,46.0,28.9,30.00,West,271,0.0,0.0,51,0.00,,,0.00,Wunderground v.1.15,2013-05-14 03:40:00,
2013-05-13 23:45:00,46.0,28.4,30.00,West,271,0.0,0.0,50,0.00,,,0.00,Wunderground v.1.15,2013-05-14 03:45:00,
2013-05-13 23:50:00,46.0,28.4,30.00,West,271,0.0,0.0,50,0.00,,,0.00,Wunderground v.1.15,2013-05-14 03:50:00,
2013-05-13 23:55:00,46.1,28.0,30.00,West,271,0.0,2.0,49,0.00,,,0.00,Wunderground v.1.15,2013-05-14 03:55:00,